Wetterdaten: Donnerstag, 22.04.2021
Datum Zeit Temp. Auen Feucht Auen Luftdruck Regen Richtung Richtung Windben
22.04.2021 00:00 8,2 C 83 % 1017,1 hPa 0,0 mm NW 310 3,2 km/h (1 Bft)
22.04.2021 00:05 8,2 C 84 % 1017,0 hPa 0,0 mm W 265 6,4 km/h (2 Bft)
22.04.2021 00:10 8,1 C 84 % 1016,9 hPa 0,0 mm W-SW 255 6,4 km/h (2 Bft)
22.04.2021 00:15 8,0 C 84 % 1016,8 hPa 0,0 mm W-SW 255 4,8 km/h (1 Bft)
22.04.2021 00:20 7,9 C 84 % 1016,8 hPa 0,0 mm W-SW 255 3,2 km/h (1 Bft)
22.04.2021 00:25 7,8 C 84 % 1017,0 hPa 0,0 mm W-SW 255 4,8 km/h (1 Bft)
22.04.2021 00:30 7,7 C 84 % 1016,9 hPa 0,0 mm W-SW 255 4,8 km/h (1 Bft)
22.04.2021 00:35 7,6 C 84 % 1016,9 hPa 0,0 mm W-SW 255 3,2 km/h (1 Bft)
22.04.2021 00:40 7,5 C 85 % 1016,9 hPa 0,0 mm N-NO 23 4,8 km/h (1 Bft)
22.04.2021 00:45 7,4 C 85 % 1017,0 hPa 0,0 mm W-NW 292 3,2 km/h (1 Bft)
22.04.2021 00:50 7,3 C 85 % 1017,0 hPa 0,0 mm NW 326 3,2 km/h (1 Bft)
22.04.2021 00:55 7,1 C 85 % 1017,0 hPa 0,0 mm W-NW 296 6,4 km/h (2 Bft)
22.04.2021 01:00 7,0 C 85 % 1017,0 hPa 0,0 mm W-NW 296 0,0 km/h (0 Bft)
22.04.2021 01:05 6,8 C 85 % 1017,0 hPa 0,0 mm W-NW 296 4,8 km/h (1 Bft)
22.04.2021 01:10 6,7 C 85 % 1017,0 hPa 0,0 mm W 267 6,4 km/h (2 Bft)
22.04.2021 01:15 6,6 C 85 % 1017,0 hPa 0,0 mm W 267 4,8 km/h (1 Bft)
22.04.2021 01:20 6,5 C 85 % 1017,0 hPa 0,0 mm W 267 4,8 km/h (1 Bft)
22.04.2021 01:25 6,3 C 85 % 1017,0 hPa 0,0 mm W 267 6,4 km/h (2 Bft)
22.04.2021 01:30 6,2 C 86 % 1017,0 hPa 0,0 mm W 267 0,0 km/h (0 Bft)
22.04.2021 01:35 6,1 C 86 % 1017,0 hPa 0,0 mm W 267 0,0 km/h (0 Bft)
22.04.2021 01:40 5,9 C 85 % 1017,0 hPa 0,0 mm W 267 0,0 km/h (0 Bft)
22.04.2021 01:45 5,8 C 86 % 1017,0 hPa 0,0 mm W 267 0,0 km/h (0 Bft)
22.04.2021 01:50 5,6 C 85 % 1017,0 hPa 0,0 mm W 267 0,0 km/h (0 Bft)
22.04.2021 01:55 5,4 C 86 % 1017,0 hPa 0,0 mm W 267 0,0 km/h (0 Bft)
22.04.2021 02:00 5,2 C 85 % 1017,1 hPa 0,0 mm W 267 0,0 km/h (0 Bft)
22.04.2021 02:05 5,1 C 86 % 1017,0 hPa 0,0 mm W 267 3,2 km/h (1 Bft)
22.04.2021 02:10 4,9 C 86 % 1017,0 hPa 0,0 mm W 267 4,8 km/h (1 Bft)
22.04.2021 02:15 4,8 C 86 % 1016,9 hPa 0,0 mm W 267 3,2 km/h (1 Bft)
22.04.2021 02:20 4,7 C 86 % 1017,0 hPa 0,0 mm W 267 0,0 km/h (0 Bft)
22.04.2021 02:25 4,6 C 86 % 1017,0 hPa 0,0 mm W 267 3,2 km/h (1 Bft)
22.04.2021 02:30 4,6 C 86 % 1017,0 hPa 0,0 mm W 267 3,2 km/h (1 Bft)
22.04.2021 02:35 4,6 C 87 % 1017,0 hPa 0,0 mm W 267 4,8 km/h (1 Bft)
22.04.2021 02:40 4,5 C 87 % 1017,0 hPa 0,0 mm W 267 4,8 km/h (1 Bft)
22.04.2021 02:45 4,4 C 87 % 1017,0 hPa 0,0 mm W 267 3,2 km/h (1 Bft)
22.04.2021 02:50 4,4 C 87 % 1017,0 hPa 0,0 mm W 267 3,2 km/h (1 Bft)
22.04.2021 02:55 4,4 C 87 % 1017,0 hPa 0,0 mm W 267 4,8 km/h (1 Bft)
22.04.2021 03:00 4,3 C 87 % 1017,0 hPa 0,0 mm W 267 1,6 km/h (1 Bft)
22.04.2021 03:05 4,3 C 87 % 1017,0 hPa 0,0 mm W 267 4,8 km/h (1 Bft)
22.04.2021 03:10 4,2 C 88 % 1017,1 hPa 0,0 mm W 267 4,8 km/h (1 Bft)
22.04.2021 03:15 4,2 C 88 % 1017,2 hPa 0,0 mm W 267 3,2 km/h (1 Bft)
22.04.2021 03:20 4,2 C 88 % 1017,2 hPa 0,0 mm W 267 3,2 km/h (1 Bft)
22.04.2021 03:25 4,1 C 88 % 1017,2 hPa 0,0 mm W 267 0,0 km/h (0 Bft)
22.04.2021 03:30 4,1 C 88 % 1017,2 hPa 0,0 mm W 267 0,0 km/h (0 Bft)
22.04.2021 03:35 4,1 C 88 % 1017,2 hPa 0,0 mm W 267 1,6 km/h (1 Bft)
22.04.2021 03:40 4,2 C 88 % 1017,2 hPa 0,0 mm W 267 0,0 km/h (0 Bft)
22.04.2021 03:45 4,2 C 88 % 1017,1 hPa 0,0 mm W 267 1,6 km/h (1 Bft)
22.04.2021 03:50 4,2 C 88 % 1017,2 hPa 0,0 mm W 267 0,0 km/h (0 Bft)
22.04.2021 03:55 4,2 C 89 % 1017,1 hPa 0,0 mm W 267 0,0 km/h (0 Bft)
22.04.2021 04:00 4,2 C 89 % 1017,1 hPa 0,0 mm W 267 0,0 km/h (0 Bft)
22.04.2021 04:05 4,2 C 89 % 1017,1 hPa 0,0 mm W 267 0,0 km/h (0 Bft)
22.04.2021 04:10 4,2 C 89 % 1017,1 hPa 0,0 mm W 267 0,0 km/h (0 Bft)
22.04.2021 04:15 4,2 C 89 % 1017,1 hPa 0,0 mm W 267 0,0 km/h (0 Bft)
22.04.2021 04:20 4,2 C 89 % 1017,1 hPa 0,0 mm W 267 0,0 km/h (0 Bft)
22.04.2021 04:25 4,2 C 89 % 1017,1 hPa 0,0 mm W 267 0,0 km/h (0 Bft)
22.04.2021 04:30 4,3 C 89 % 1017,1 hPa 0,0 mm W 267 0,0 km/h (0 Bft)
22.04.2021 04:35 4,3 C 89 % 1017,1 hPa 0,0 mm W 267 0,0 km/h (0 Bft)
22.04.2021 04:40 4,3 C 89 % 1017,1 hPa 0,0 mm W 267 0,0 km/h (0 Bft)
22.04.2021 04:45 4,3 C 89 % 1017,1 hPa 0,0 mm W 267 0,0 km/h (0 Bft)
22.04.2021 04:50 4,3 C 89 % 1017,1 hPa 0,0 mm W 267 0,0 km/h (0 Bft)
22.04.2021 04:55 4,3 C 90 % 1017,0 hPa 0,0 mm W 267 0,0 km/h (0 Bft)
22.04.2021 05:00 4,3 C 90 % 1017,1 hPa 0,0 mm W 267 0,0 km/h (0 Bft)
22.04.2021 05:05 4,3 C 90 % 1017,0 hPa 0,0 mm W 267 0,0 km/h (0 Bft)
22.04.2021 05:10 4,3 C 90 % 1017,1 hPa 0,0 mm W 267 0,0 km/h (0 Bft)
22.04.2021 05:15 4,3 C 90 % 1017,0 hPa 0,0 mm W 267 0,0 km/h (0 Bft)
22.04.2021 05:20 4,3 C 90 % 1017,0 hPa 0,0 mm W 267 0,0 km/h (0 Bft)
22.04.2021 05:25 4,3 C 90 % 1017,0 hPa 0,0 mm W 267 0,0 km/h (0 Bft)
22.04.2021 05:30 4,3 C 90 % 1017,0 hPa 0,0 mm W 267 0,0 km/h (0 Bft)
22.04.2021 05:35 4,3 C 90 % 1017,1 hPa 0,0 mm W 267 0,0 km/h (0 Bft)
22.04.2021 05:40 4,4 C 90 % 1017,1 hPa 0,0 mm W 267 0,0 km/h (0 Bft)
22.04.2021 05:45 4,4 C 90 % 1017,1 hPa 0,0 mm W 267 0,0 km/h (0 Bft)
22.04.2021 05:50 4,4 C 90 % 1017,2 hPa 0,0 mm W 267 0,0 km/h (0 Bft)
22.04.2021 05:55 4,4 C 90 % 1017,3 hPa 0,0 mm W 267 0,0 km/h (0 Bft)
22.04.2021 06:00 4,5 C 90 % 1017,3 hPa 0,0 mm W 267 0,0 km/h (0 Bft)
22.04.2021 06:05 4,5 C 90 % 1017,5 hPa 0,0 mm W 267 4,8 km/h (1 Bft)
22.04.2021 06:10 4,6 C 90 % 1017,4 hPa 0,0 mm W 268 6,4 km/h (2 Bft)
22.04.2021 06:15 4,6 C 90 % 1017,4 hPa 0,0 mm W 268 8,0 km/h (2 Bft)
22.04.2021 06:20 4,7 C 90 % 1017,4 hPa 0,0 mm W 269 8,0 km/h (2 Bft)
22.04.2021 06:25 4,8 C 91 % 1017,6 hPa 0,0 mm W 271 8,0 km/h (2 Bft)
22.04.2021 06:30 4,9 C 91 % 1017,5 hPa 0,0 mm W 271 6,4 km/h (2 Bft)
22.04.2021 06:35 5,0 C 91 % 1017,6 hPa 0,0 mm W 271 4,8 km/h (1 Bft)
22.04.2021 06:40 5,1 C 91 % 1017,6 hPa 0,0 mm W 271 4,8 km/h (1 Bft)
22.04.2021 06:45 5,1 C 91 % 1017,6 hPa 0,0 mm W 271 3,2 km/h (1 Bft)
22.04.2021 06:50 5,2 C 91 % 1017,6 hPa 0,0 mm W 271 3,2 km/h (1 Bft)
22.04.2021 06:55 5,3 C 91 % 1017,7 hPa 0,0 mm W 271 4,8 km/h (1 Bft)
22.04.2021 07:00 5,3 C 91 % 1017,9 hPa 0,0 mm W 271 4,8 km/h (1 Bft)
22.04.2021 07:05 5,4 C 91 % 1017,8 hPa 0,0 mm W 271 4,8 km/h (1 Bft)
22.04.2021 07:10 5,6 C 91 % 1017,9 hPa 0,0 mm W 271 4,8 km/h (1 Bft)
22.04.2021 07:15 5,7 C 91 % 1017,9 hPa 0,0 mm W 271 6,4 km/h (2 Bft)
22.04.2021 07:20 5,8 C 91 % 1017,9 hPa 0,0 mm W 271 4,8 km/h (1 Bft)
22.04.2021 07:25 5,8 C 91 % 1017,8 hPa 0,0 mm W 271 3,2 km/h (1 Bft)
22.04.2021 07:30 6,0 C 91 % 1017,8 hPa 0,0 mm W 271 1,6 km/h (1 Bft)
22.04.2021 07:35 6,1 C 92 % 1017,8 hPa 0,0 mm W 271 0,0 km/h (0 Bft)
22.04.2021 07:40 6,2 C 92 % 1017,8 hPa 0,0 mm W 271 0,0 km/h (0 Bft)
22.04.2021 07:45 6,3 C 92 % 1017,8 hPa 0,0 mm W 271 3,2 km/h (1 Bft)
22.04.2021 07:50 6,9 C 92 % 1017,9 hPa 0,0 mm W 271 3,2 km/h (1 Bft)
22.04.2021 07:55 7,7 C 92 % 1017,9 hPa 0,0 mm W 271 4,8 km/h (1 Bft)
22.04.2021 08:00 7,8 C 91 % 1017,9 hPa 0,0 mm W 271 4,8 km/h (1 Bft)
22.04.2021 08:05 7,9 C 90 % 1017,9 hPa 0,0 mm W 271 3,2 km/h (1 Bft)
22.04.2021 08:10 8,2 C 90 % 1017,8 hPa 0,0 mm W 271 3,2 km/h (1 Bft)
22.04.2021 08:15 9,1 C 89 % 1017,8 hPa 0,0 mm W 271 0,0 km/h (0 Bft)
22.04.2021 08:20 9,1 C 86 % 1017,8 hPa 0,0 mm W 271 1,6 km/h (1 Bft)
22.04.2021 08:25 9,1 C 88 % 1017,8 hPa 0,0 mm W 271 3,2 km/h (1 Bft)
22.04.2021 08:30 9,4 C 87 % 1017,8 hPa 0,0 mm W 270 4,8 km/h (1 Bft)
22.04.2021 08:35 10,0 C 84 % 1017,8 hPa 0,0 mm O-NO 65 4,8 km/h (1 Bft)
22.04.2021 08:40 9,7 C 86 % 1017,8 hPa 0,0 mm O 95 8,0 km/h (2 Bft)
22.04.2021 08:45 10,1 C 87 % 1017,8 hPa 0,0 mm O 95 3,2 km/h (1 Bft)
22.04.2021 08:50 10,4 C 87 % 1017,9 hPa 0,0 mm O 89 8,0 km/h (2 Bft)
22.04.2021 08:55 10,6 C 86 % 1018,0 hPa 0,0 mm O 82 8,0 km/h (2 Bft)
22.04.2021 09:00 10,6 C 84 % 1018,0 hPa 0,0 mm S 171 8,0 km/h (2 Bft)
22.04.2021 09:05 12,1 C 81 % 1018,2 hPa 0,0 mm W-NW 284 6,4 km/h (2 Bft)
22.04.2021 09:10 12,4 C 74 % 1018,2 hPa 0,0 mm NW 311 8,0 km/h (2 Bft)
22.04.2021 09:15 12,4 C 71 % 1018,2 hPa 0,0 mm W 269 9,7 km/h (2 Bft)
22.04.2021 09:20 12,6 C 71 % 1018,2 hPa 0,0 mm W 277 9,7 km/h (2 Bft)
22.04.2021 09:25 12,8 C 69 % 1018,2 hPa 0,0 mm W-NW 286 9,7 km/h (2 Bft)
22.04.2021 09:30 12,7 C 68 % 1018,2 hPa 0,0 mm W 270 12,9 km/h (3 Bft)
22.04.2021 09:35 12,7 C 67 % 1018,3 hPa 0,0 mm W 262 12,9 km/h (3 Bft)
22.04.2021 09:40 12,8 C 66 % 1018,3 hPa 0,0 mm W 280 11,3 km/h (2 Bft)
22.04.2021 09:45 13,2 C 68 % 1018,3 hPa 0,0 mm W 271 9,7 km/h (2 Bft)
22.04.2021 09:50 13,3 C 67 % 1018,3 hPa 0,0 mm W-NW 286 9,7 km/h (2 Bft)
22.04.2021 09:55 13,3 C 65 % 1018,3 hPa 0,0 mm W 280 9,7 km/h (2 Bft)
22.04.2021 10:00 12,9 C 65 % 1018,3 hPa 0,0 mm W 273 17,7 km/h (3 Bft)
22.04.2021 10:05 12,6 C 66 % 1018,4 hPa 0,0 mm W-SW 251 19,3 km/h (3 Bft)
22.04.2021 10:10 12,4 C 66 % 1018,5 hPa 0,0 mm W-NW 286 16,1 km/h (3 Bft)
22.04.2021 10:15 12,4 C 66 % 1018,5 hPa 0,0 mm W 281 17,7 km/h (3 Bft)
22.04.2021 10:20 12,3 C 65 % 1018,6 hPa 0,0 mm W 281 24,1 km/h (4 Bft)
22.04.2021 10:25 12,1 C 67 % 1018,6 hPa 0,0 mm W-NW 287 16,1 km/h (3 Bft)
22.04.2021 10:30 12,0 C 68 % 1018,7 hPa 0,0 mm W 273 17,7 km/h (3 Bft)
22.04.2021 10:35 11,9 C 68 % 1018,7 hPa 0,0 mm W 280 17,7 km/h (3 Bft)
22.04.2021 10:40 12,1 C 70 % 1018,7 hPa 0,0 mm W 268 20,9 km/h (4 Bft)
22.04.2021 10:45 12,3 C 69 % 1018,8 hPa 0,0 mm W 268 16,1 km/h (3 Bft)
22.04.2021 10:50 12,2 C 68 % 1018,8 hPa 0,0 mm W 278 17,7 km/h (3 Bft)
22.04.2021 10:55 12,1 C 68 % 1018,9 hPa 0,0 mm W 265 16,1 km/h (3 Bft)
22.04.2021 11:00 12,1 C 69 % 1019,0 hPa 0,0 mm W 269 14,5 km/h (3 Bft)
22.04.2021 11:05 12,0 C 69 % 1019,0 hPa 0,0 mm W 275 14,5 km/h (3 Bft)
22.04.2021 11:10 11,8 C 70 % 1019,0 hPa 0,0 mm W-SW 248 12,9 km/h (3 Bft)
22.04.2021 11:15 11,7 C 70 % 1019,1 hPa 0,0 mm W 277 14,5 km/h (3 Bft)
22.04.2021 11:20 11,7 C 72 % 1019,1 hPa 0,0 mm W 268 12,9 km/h (3 Bft)
22.04.2021 11:25 12,1 C 74 % 1019,1 hPa 0,0 mm W-NW 283 11,3 km/h (2 Bft)
22.04.2021 11:30 12,4 C 72 % 1019,1 hPa 0,0 mm W 267 12,9 km/h (3 Bft)
22.04.2021 11:35 12,9 C 71 % 1019,1 hPa 0,0 mm W 279 14,5 km/h (3 Bft)
22.04.2021 11:40 13,8 C 70 % 1019,1 hPa 0,0 mm W 279 11,3 km/h (2 Bft)
22.04.2021 11:45 14,3 C 66 % 1019,0 hPa 0,0 mm W 273 9,7 km/h (2 Bft)
22.04.2021 11:50 13,8 C 67 % 1019,0 hPa 0,0 mm W-NW 289 12,9 km/h (3 Bft)
22.04.2021 11:55 13,3 C 65 % 1018,9 hPa 0,0 mm W 269 14,5 km/h (3 Bft)
22.04.2021 12:00 13,3 C 68 % 1018,8 hPa 0,0 mm W-NW 294 16,1 km/h (3 Bft)
22.04.2021 12:05 13,2 C 67 % 1018,8 hPa 0,0 mm W 270 12,9 km/h (3 Bft)
22.04.2021 12:10 13,0 C 68 % 1018,8 hPa 0,0 mm W 268 12,9 km/h (3 Bft)
22.04.2021 12:15 13,1 C 68 % 1018,7 hPa 0,0 mm W-SW 251 9,7 km/h (2 Bft)
22.04.2021 12:20 13,1 C 67 % 1018,8 hPa 0,0 mm W 264 11,3 km/h (2 Bft)
22.04.2021 12:25 12,9 C 67 % 1018,6 hPa 0,0 mm W 259 14,5 km/h (3 Bft)
22.04.2021 12:30 13,1 C 69 % 1018,7 hPa 0,0 mm W 275 11,3 km/h (2 Bft)
22.04.2021 12:35 13,2 C 68 % 1018,6 hPa 0,0 mm W 269 16,1 km/h (3 Bft)
22.04.2021 12:40 14,2 C 70 % 1018,5 hPa 0,0 mm W-NW 301 17,7 km/h (3 Bft)
22.04.2021 12:45 14,6 C 67 % 1018,4 hPa 0,0 mm W 266 12,9 km/h (3 Bft)
22.04.2021 12:50 14,7 C 67 % 1018,4 hPa 0,0 mm W-SW 257 12,9 km/h (3 Bft)
22.04.2021 12:55 14,2 C 64 % 1018,5 hPa 0,0 mm W-SW 250 16,1 km/h (3 Bft)
22.04.2021 13:00 13,8 C 66 % 1018,6 hPa 0,0 mm W 267 32,2 km/h (5 Bft)
22.04.2021 13:05 12,9 C 64 % 1018,6 hPa 0,2 mm W-NW 284 24,1 km/h (4 Bft)
22.04.2021 13:10 11,5 C 68 % 1018,5 hPa 0,0 mm W-SW 248 19,3 km/h (3 Bft)
22.04.2021 13:15 11,1 C 75 % 1018,5 hPa 0,0 mm W 273 8,0 km/h (2 Bft)
22.04.2021 13:20 11,3 C 74 % 1018,6 hPa 0,0 mm W 265 14,5 km/h (3 Bft)
22.04.2021 13:25 11,6 C 74 % 1018,7 hPa 0,0 mm W 265 17,7 km/h (3 Bft)
22.04.2021 13:30 12,1 C 73 % 1018,7 hPa 0,0 mm W-NW 292 27,4 km/h (4 Bft)
22.04.2021 13:35 11,8 C 71 % 1018,8 hPa 0,0 mm W-SW 244 25,7 km/h (4 Bft)
22.04.2021 13:40 11,6 C 71 % 1019,1 hPa 0,0 mm W 275 30,6 km/h (5 Bft)
22.04.2021 13:45 11,4 C 72 % 1019,2 hPa 0,2 mm W-SW 247 17,7 km/h (3 Bft)
22.04.2021 13:50 11,1 C 73 % 1019,0 hPa 0,2 mm W 271 16,1 km/h (3 Bft)
22.04.2021 13:55 10,8 C 74 % 1019,1 hPa 0,0 mm W 260 11,3 km/h (2 Bft)
22.04.2021 14:00 10,6 C 75 % 1019,2 hPa 0,0 mm W 271 11,3 km/h (2 Bft)
22.04.2021 14:05 10,4 C 76 % 1019,2 hPa 0,0 mm W 271 9,7 km/h (2 Bft)
22.04.2021 14:10 10,2 C 77 % 1019,2 hPa 0,0 mm W 273 8,0 km/h (2 Bft)
22.04.2021 14:15 9,8 C 78 % 1019,1 hPa 0,0 mm W 264 8,0 km/h (2 Bft)
22.04.2021 14:20 9,9 C 82 % 1019,1 hPa 0,0 mm W 281 6,4 km/h (2 Bft)
22.04.2021 14:25 10,5 C 82 % 1019,1 hPa 0,0 mm W 269 11,3 km/h (2 Bft)
22.04.2021 14:30 10,4 C 81 % 1019,1 hPa 0,0 mm W 269 9,7 km/h (2 Bft)
22.04.2021 14:35 10,4 C 81 % 1019,1 hPa 0,0 mm W 279 11,3 km/h (2 Bft)
22.04.2021 14:40 10,6 C 82 % 1019,0 hPa 0,0 mm W 270 6,4 km/h (2 Bft)
22.04.2021 14:45 10,8 C 81 % 1019,1 hPa 0,0 mm W 268 11,3 km/h (2 Bft)
22.04.2021 14:50 11,3 C 81 % 1019,1 hPa 0,0 mm W 267 8,0 km/h (2 Bft)
22.04.2021 14:55 11,3 C 80 % 1019,1 hPa 0,0 mm W-NW 286 9,7 km/h (2 Bft)
22.04.2021 15:00 11,3 C 81 % 1019,0 hPa 0,0 mm W 271 9,7 km/h (2 Bft)
22.04.2021 15:05 11,4 C 80 % 1019,1 hPa 0,0 mm W 271 4,8 km/h (1 Bft)
22.04.2021 15:10 11,5 C 80 % 1018,9 hPa 0,0 mm W 271 4,8 km/h (1 Bft)
22.04.2021 15:15 11,5 C 79 % 1018,9 hPa 0,0 mm W 272 8,0 km/h (2 Bft)
22.04.2021 15:20 11,4 C 78 % 1018,9 hPa 0,0 mm W-SW 254 9,7 km/h (2 Bft)
22.04.2021 15:25 11,4 C 78 % 1018,8 hPa 0,0 mm W 277 14,5 km/h (3 Bft)
22.04.2021 15:30 11,5 C 78 % 1018,9 hPa 0,0 mm W 265 11,3 km/h (2 Bft)
22.04.2021 15:35 11,4 C 78 % 1019,0 hPa 0,0 mm W-NW 290 14,5 km/h (3 Bft)
22.04.2021 15:40 11,3 C 78 % 1018,9 hPa 0,0 mm W 259 11,3 km/h (2 Bft)
22.04.2021 15:45 11,2 C 77 % 1018,8 hPa 0,0 mm W 273 12,9 km/h (3 Bft)
22.04.2021 15:50 11,1 C 77 % 1019,4 hPa 0,0 mm W 266 20,9 km/h (4 Bft)
22.04.2021 15:55 10,9 C 77 % 1019,3 hPa 0,0 mm W-NW 289 16,1 km/h (3 Bft)
22.04.2021 16:00 10,8 C 77 % 1019,3 hPa 0,0 mm W-SW 254 9,7 km/h (2 Bft)
22.04.2021 16:05 10,4 C 77 % 1019,4 hPa 0,0 mm W 267 14,5 km/h (3 Bft)
22.04.2021 16:10 10,0 C 80 % 1019,4 hPa 0,0 mm W-SW 257 9,7 km/h (2 Bft)
22.04.2021 16:15 9,9 C 81 % 1019,3 hPa 0,0 mm W 263 9,7 km/h (2 Bft)
22.04.2021 16:20 10,3 C 81 % 1019,2 hPa 0,0 mm W-SW 243 17,7 km/h (3 Bft)
22.04.2021 16:25 10,6 C 79 % 1019,2 hPa 0,0 mm W-NW 295 12,9 km/h (3 Bft)
22.04.2021 16:30 10,7 C 78 % 1019,3 hPa 0,0 mm W 272 11,3 km/h (2 Bft)
22.04.2021 16:35 10,6 C 79 % 1019,4 hPa 0,2 mm W-NW 284 17,7 km/h (3 Bft)
22.04.2021 16:40 10,3 C 82 % 1019,4 hPa 0,2 mm W 277 9,7 km/h (2 Bft)
22.04.2021 16:45 10,2 C 84 % 1019,5 hPa 0,0 mm W-NW 300 9,7 km/h (2 Bft)
22.04.2021 16:50 10,3 C 84 % 1019,5 hPa 0,0 mm W-NW 282 9,7 km/h (2 Bft)
22.04.2021 16:55 10,3 C 85 % 1019,5 hPa 0,0 mm W 280 11,3 km/h (2 Bft)
22.04.2021 17:00 10,4 C 85 % 1019,5 hPa 0,0 mm W 280 6,4 km/h (2 Bft)
22.04.2021 17:05 10,4 C 85 % 1019,6 hPa 0,0 mm W 279 9,7 km/h (2 Bft)
22.04.2021 17:10 10,6 C 84 % 1019,6 hPa 0,0 mm W-SW 242 9,7 km/h (2 Bft)
22.04.2021 17:15 10,6 C 83 % 1019,6 hPa 0,0 mm W 274 11,3 km/h (2 Bft)
22.04.2021 17:20 10,6 C 82 % 1019,7 hPa 0,0 mm W 274 4,8 km/h (1 Bft)
22.04.2021 17:25 10,9 C 82 % 1019,7 hPa 0,0 mm W-NW 284 8,0 km/h (2 Bft)
22.04.2021 17:30 11,0 C 81 % 1019,7 hPa 0,0 mm W 272 9,7 km/h (2 Bft)
22.04.2021 17:35 11,1 C 80 % 1019,7 hPa 0,0 mm W 279 8,0 km/h (2 Bft)
22.04.2021 17:40 11,0 C 79 % 1019,7 hPa 0,0 mm W 271 9,7 km/h (2 Bft)
22.04.2021 17:45 10,9 C 79 % 1019,8 hPa 0,0 mm W-SW 254 8,0 km/h (2 Bft)
22.04.2021 17:50 11,1 C 79 % 1019,7 hPa 0,0 mm W 270 8,0 km/h (2 Bft)
22.04.2021 17:55 11,0 C 78 % 1019,8 hPa 0,0 mm W 277 8,0 km/h (2 Bft)
22.04.2021 18:00 11,1 C 79 % 1019,8 hPa 0,0 mm W 276 8,0 km/h (2 Bft)
22.04.2021 18:05 11,1 C 79 % 1019,8 hPa 0,0 mm W 276 4,8 km/h (1 Bft)
22.04.2021 18:10 11,1 C 79 % 1019,7 hPa 0,0 mm W 259 8,0 km/h (2 Bft)
22.04.2021 18:15 11,1 C 78 % 1019,8 hPa 0,0 mm W 275 9,7 km/h (2 Bft)
22.04.2021 18:20 11,2 C 77 % 1019,8 hPa 0,0 mm W 280 8,0 km/h (2 Bft)
22.04.2021 18:25 11,2 C 77 % 1019,8 hPa 0,0 mm W-NW 293 6,4 km/h (2 Bft)
22.04.2021 18:30 11,3 C 77 % 1019,9 hPa 0,0 mm W 280 11,3 km/h (2 Bft)
22.04.2021 18:35 11,3 C 76 % 1019,9 hPa 0,0 mm W-NW 284 6,4 km/h (2 Bft)
22.04.2021 18:40 11,2 C 76 % 1019,9 hPa 0,0 mm W-NW 284 6,4 km/h (2 Bft)
22.04.2021 18:45 11,2 C 76 % 1020,0 hPa 0,0 mm W-NW 284 4,8 km/h (1 Bft)
22.04.2021 18:50 11,2 C 76 % 1020,0 hPa 0,0 mm W-NW 284 6,4 km/h (2 Bft)
22.04.2021 18:55 11,2 C 76 % 1020,0 hPa 0,0 mm W-NW 290 6,4 km/h (2 Bft)
22.04.2021 19:00 11,2 C 76 % 1020,1 hPa 0,0 mm W-NW 286 6,4 km/h (2 Bft)
22.04.2021 19:05 11,1 C 76 % 1020,1 hPa 0,0 mm W 280 6,4 km/h (2 Bft)
22.04.2021 19:10 11,1 C 77 % 1020,3 hPa 0,0 mm W 280 6,4 km/h (2 Bft)
22.04.2021 19:15 10,9 C 77 % 1020,3 hPa 0,0 mm W 280 6,4 km/h (2 Bft)
22.04.2021 19:20 10,9 C 77 % 1020,3 hPa 0,0 mm W 280 3,2 km/h (1 Bft)
22.04.2021 19:25 10,8 C 77 % 1020,4 hPa 0,0 mm W 276 8,0 km/h (2 Bft)
22.04.2021 19:30 10,8 C 77 % 1020,5 hPa 0,0 mm W 278 6,4 km/h (2 Bft)
22.04.2021 19:35 10,7 C 77 % 1020,5 hPa 0,0 mm W 278 6,4 km/h (2 Bft)
22.04.2021 19:40 10,6 C 77 % 1020,6 hPa 0,0 mm W 277 8,0 km/h (2 Bft)
22.04.2021 19:45 10,5 C 77 % 1020,7 hPa 0,0 mm W 277 3,2 km/h (1 Bft)
22.04.2021 19:50 10,4 C 77 % 1020,7 hPa 0,0 mm W 277 3,2 km/h (1 Bft)
22.04.2021 19:55 10,3 C 77 % 1020,7 hPa 0,0 mm W 277 4,8 km/h (1 Bft)
22.04.2021 20:00 10,2 C 77 % 1020,9 hPa 0,0 mm W 277 3,2 km/h (1 Bft)
22.04.2021 20:05 10,0 C 77 % 1020,9 hPa 0,0 mm W 277 0,0 km/h (0 Bft)
22.04.2021 20:10 9,8 C 77 % 1020,9 hPa 0,0 mm W 277 1,6 km/h (1 Bft)
22.04.2021 20:15 9,7 C 77 % 1021,0 hPa 0,0 mm W 277 3,2 km/h (1 Bft)
22.04.2021 20:20 9,4 C 77 % 1021,1 hPa 0,0 mm W 277 4,8 km/h (1 Bft)
22.04.2021 20:25 9,3 C 77 % 1021,2 hPa 0,0 mm W 277 3,2 km/h (1 Bft)
22.04.2021 20:30 9,1 C 77 % 1021,3 hPa 0,0 mm W 277 3,2 km/h (1 Bft)
22.04.2021 20:35 8,9 C 77 % 1021,3 hPa 0,0 mm W 277 0,0 km/h (0 Bft)
22.04.2021 20:40 8,7 C 77 % 1021,5 hPa 0,0 mm W 277 3,2 km/h (1 Bft)
22.04.2021 20:45 8,6 C 77 % 1021,6 hPa 0,0 mm W 277 3,2 km/h (1 Bft)
22.04.2021 20:50 8,4 C 78 % 1021,7 hPa 0,0 mm W 277 3,2 km/h (1 Bft)
22.04.2021 20:55 8,2 C 78 % 1021,8 hPa 0,0 mm W 277 4,8 km/h (1 Bft)
22.04.2021 21:00 8,0 C 78 % 1021,8 hPa 0,0 mm W 277 1,6 km/h (1 Bft)
22.04.2021 21:05 7,8 C 78 % 1021,9 hPa 0,0 mm W 277 0,0 km/h (0 Bft)
22.04.2021 21:10 7,6 C 78 % 1022,0 hPa 0,0 mm W 277 0,0 km/h (0 Bft)
22.04.2021 21:15 7,4 C 78 % 1022,1 hPa 0,0 mm W 277 0,0 km/h (0 Bft)
22.04.2021 21:20 7,3 C 79 % 1022,2 hPa 0,0 mm W 277 0,0 km/h (0 Bft)
22.04.2021 21:25 7,1 C 79 % 1022,3 hPa 0,0 mm W 277 0,0 km/h (0 Bft)
22.04.2021 21:30 6,9 C 79 % 1022,3 hPa 0,0 mm W 277 0,0 km/h (0 Bft)
22.04.2021 21:35 6,8 C 79 % 1022,4 hPa 0,0 mm W 277 0,0 km/h (0 Bft)
22.04.2021 21:40 6,6 C 79 % 1022,4 hPa 0,0 mm W 277 0,0 km/h (0 Bft)
22.04.2021 21:45 6,4 C 79 % 1022,6 hPa 0,0 mm W 277 0,0 km/h (0 Bft)
22.04.2021 21:50 6,3 C 80 % 1022,6 hPa 0,0 mm W 277 0,0 km/h (0 Bft)
22.04.2021 21:55 6,1 C 80 % 1022,7 hPa 0,0 mm W 277 0,0 km/h (0 Bft)
22.04.2021 22:00 5,9 C 80 % 1022,7 hPa 0,0 mm W 277 0,0 km/h (0 Bft)
22.04.2021 22:05 5,7 C 80 % 1022,7 hPa 0,0 mm W 277 0,0 km/h (0 Bft)
22.04.2021 22:10 5,6 C 80 % 1022,8 hPa 0,0 mm W 277 0,0 km/h (0 Bft)
22.04.2021 22:15 5,4 C 81 % 1022,8 hPa 0,0 mm W 277 0,0 km/h (0 Bft)
22.04.2021 22:20 5,3 C 81 % 1022,8 hPa 0,0 mm W 277 0,0 km/h (0 Bft)
22.04.2021 22:25 5,1 C 81 % 1022,9 hPa 0,0 mm W 277 0,0 km/h (0 Bft)
22.04.2021 22:30 5,0 C 81 % 1022,9 hPa 0,0 mm W 277 0,0 km/h (0 Bft)
22.04.2021 22:35 4,8 C 81 % 1023,0 hPa 0,0 mm W 277 0,0 km/h (0 Bft)
22.04.2021 22:40 4,7 C 82 % 1023,0 hPa 0,0 mm W 277 0,0 km/h (0 Bft)
22.04.2021 22:45 4,5 C 82 % 1023,0 hPa 0,0 mm W 277 0,0 km/h (0 Bft)
22.04.2021 22:50 4,4 C 82 % 1023,0 hPa 0,0 mm W 277 0,0 km/h (0 Bft)
22.04.2021 22:55 4,3 C 82 % 1023,1 hPa 0,0 mm W 277 0,0 km/h (0 Bft)
22.04.2021 23:00 4,2 C 82 % 1023,2 hPa 0,0 mm W 277 0,0 km/h (0 Bft)
22.04.2021 23:05 4,0 C 82 % 1023,3 hPa 0,0 mm W 277 0,0 km/h (0 Bft)
22.04.2021 23:10 3,9 C 83 % 1023,3 hPa 0,0 mm W 277 0,0 km/h (0 Bft)
22.04.2021 23:15 3,7 C 83 % 1023,4 hPa 0,0 mm W 277 0,0 km/h (0 Bft)
22.04.2021 23:20 3,6 C 83 % 1023,5 hPa 0,0 mm W 277 3,2 km/h (1 Bft)
22.04.2021 23:25 3,5 C 83 % 1023,6 hPa 0,0 mm W 277 1,6 km/h (1 Bft)
22.04.2021 23:30 3,4 C 83 % 1023,6 hPa 0,0 mm W 277 3,2 km/h (1 Bft)
22.04.2021 23:35 3,3 C 84 % 1023,6 hPa 0,0 mm W 277 4,8 km/h (1 Bft)
22.04.2021 23:40 3,2 C 84 % 1023,7 hPa 0,0 mm W 277 4,8 km/h (1 Bft)
22.04.2021 23:45 3,1 C 84 % 1023,6 hPa 0,0 mm W 277 3,2 km/h (1 Bft)
22.04.2021 23:50 3,1 C 84 % 1023,7 hPa 0,0 mm W 277 3,2 km/h (1 Bft)
22.04.2021 23:55 2,9 C 84 % 1023,7 hPa 0,0 mm W 277 4,8 km/h (1 Bft)
_ Min-Zeit 23:55 12:55 00:15 - - - 01:00
Minimum _ 2,9 C 64 % 1016,8 hPa - - - 0,0 km/h (0 Bft)
_ Max-Zeit 12:50 07:35 23:40 13:05 - - 13:00
Maximum _ 14,8 C 92 % 1023,7 hPa 0,2 mm - - 32,2 km/h
W (5 Bft)
Durchschnitt _ 8,5 C 81 % 1019,0 hPa #1,0 mm W - 6,6 km/h (2 Bft)